Theta_e
327 326 326 328 328 326 324 323 322 322 320 317 317 318 318 320 322 323 321 317 316 318 318 318 319 319 320 321 321 322 323 323 325 328 333 337 339 339 339 339 339 338 338 338 341 342 343 344 344 343 343 344 344 343 341 340 339 337 336 336 336 335 334 333 333 333 333 333 334 335 335 335 335 335
326 326 325 326 327 326 324 323 322 321 319 318 317 317 317 318 320 322 322 320 317 317 318 317 318 319 320 321 321 322 323 323 324 325 329 334 338 339 339 339 340 340 340 340 340 341 343 344 344 343 343 344 344 344 343 342 340 339 337 337 336 336 335 335 335 335 335 334 334 333 333 334 333 332
326 326 326 325 325 326 324 323 322 321 319 318 318 317 317 317 317 319 321 322 319 317 318 318 318 319 320 320 320 321 322 323 324 325 326 330 334 337 339 340 340 340 340 340 341 341 341 342 342 341 342 343 344 344 345 344 342 340 338 338 337 337 337 336 336 336 335 335 335 334 334 333 333 333
328 327 327 326 325 326 325 324 324 323 321 318 318 318 317 317 318 318 320 321 320 317 317 317 318 319 320 320 320 321 322 323 325 325 326 328 330 333 335 338 339 338 339 340 340 340 340 340 341 342 342 343 343 343 344 344 344 342 339 338 337 337 336 336 336 335 334 334 334 334 334 333 333 333
328 328 328 328 327 326 326 326 325 326 325 323 320 318 317 318 319 320 320 320 320 318 317 317 318 319 320 320 320 320 322 323 325 326 326 327 328 330 332 334 337 338 338 339 339 339 339 340 341 342 342 342 342 342 343 344 344 343 339 338 337 337 336 335 335 334 333 332 332 332 332 332 332 333
326 327 327 328 328 328 328 326 325 325 326 326 325 321 319 321 322 322 321 321 321 320 317 317 318 318 319 320 320 320 322 324 325 326 327 326 327 330 331 332 335 336 337 339 339 339 339 340 341 341 343 343 342 341 343 343 343 342 340 338 336 335 335 334 333 332 332 331 331 332 332 332 333 333
324 324 325 325 325 326 327 327 325 326 326 327 327 325 324 324 323 322 322 322 323 322 319 318 318 318 318 319 319 319 322 324 326 326 327 327 327 329 331 331 332 334 335 338 339 339 339 340 340 341 342 343 343 341 341 340 340 340 339 338 336 336 334 332 331 331 331 331 332 332 333 334 335 335
322 322 322 321 321 323 326 326 326 327 328 327 328 327 327 327 325 323 322 323 323 322 320 319 318 318 318 318 318 320 322 325 326 326 327 327 328 330 331 331 331 332 334 336 338 338 338 338 339 340 340 342 343 343 342 339 338 338 337 336 336 336 335 333 331 331 331 332 332 332 332 333 335 337
321 320 320 319 320 322 325 326 327 328 329 328 328 327 327 327 326 323 322 323 323 322 321 320 318 317 318 318 318 320 322 324 326 326 327 328 328 330 331 332 331 331 332 334 337 337 337 338 339 339 339 340 342 342 342 341 339 338 337 336 335 335 336 335 334 333 333 334 333 334 332 331 334 338
321 321 320 319 319 321 324 326 327 327 328 328 328 327 327 327 327 323 322 322 322 321 321 319 318 317 318 318 319 320 322 324 325 325 327 328 328 329 331 332 332 331 331 332 334 336 336 338 339 339 340 341 341 341 341 341 340 339 338 336 335 335 335 336 336 336 335 336 335 334 332 331 335 338
322 321 321 320 319 321 323 325 325 326 326 326 327 327 327 328 326 323 322 322 322 322 320 318 318 318 317 319 321 322 323 323 324 325 326 327 328 329 330 332 333 333 332 332 332 334 335 336 337 338 339 340 340 341 340 340 340 340 338 337 336 335 335 335 335 336 336 336 335 334 331 332 336 339
322 322 321 320 320 321 323 324 324 324 323 323 324 325 327 327 325 323 322 321 321 321 320 318 318 318 317 318 321 323 323 324 324 324 324 326 327 328 329 331 333 333 334 333 333 333 333 334 335 335 337 338 339 339 339 340 340 340 339 338 338 337 336 336 336 335 335 336 334 332 332 335 338 339
322 322 322 321 321 321 322 323 323 322 322 323 323 324 326 325 324 323 322 321 321 321 319 318 317 317 317 319 322 323 324 324 325 324 324 325 326 327 328 330 332 333 333 334 334 333 333 335 335 335 335 335 337 337 338 338 338 337 336 336 337 338 337 337 336 336 336 335 333 332 333 336 338 338
322 322 321 321 321 321 322 322 322 322 322 322 323 324 325 324 323 322 321 322 321 320 319 317 317 318 318 319 322 323 323 323 324 325 325 325 325 326 327 329 331 332 333 334 335 334 334 335 337 337 336 335 334 336 336 335 336 335 335 334 335 336 337 337 337 337 336 335 333 333 335 336 337 338
323 322 322 321 321 321 321 320 320 321 320 321 322 322 322 321 321 322 322 322 321 320 319 317 317 318 318 318 320 321 320 320 322 324 325 326 325 325 326 328 330 332 333 333 335 335 335 335 336 337 338 337 335 334 335 335 335 336 336 334 334 335 336 337 338 339 337 335 334 335 336 336 336 338
325 322 321 322 321 320 319 318 318 319 319 320 320 320 320 320 320 321 322 322 321 320 318 318 318 318 317 317 318 319 319 319 319 321 324 325 326 326 326 326 328 331 332 333 334 335 335 335 336 336 337 337 335 334 334 336 337 337 337 335 334 335 335 336 338 338 337 336 335 336 336 336 336 337
325 322 321 322 322 321 320 318 318 318 318 319 319 320 320 320 320 321 321 322 322 320 318 318 318 317 317 318 317 317 317 318 320 321 323 325 325 326 326 325 326 329 332 332 334 335 335 336 336 336 335 336 335 333 334 336 338 338 337 336 335 335 336 336 337 339 339 337 336 336 337 337 337 338
325 323 321 322 322 322 321 319 318 317 317 318 319 319 319 320 321 321 322 323 323 320 318 318 318 318 318 318 317 317 318 319 321 321 322 324 325 325 326 326 326 328 330 331 333 334 335 336 336 337 336 335 334 333 334 336 337 338 337 336 336 336 336 336 337 339 339 338 337 337 337 337 337 338
326 324 322 321 322 322 322 321 320 318 317 317 317 317 318 320 321 321 322 323 324 321 319 318 319 319 318 318 317 317 318 320 321 322 322 323 324 324 326 326 326 327 328 330 332 334 335 335 337 337 337 335 334 333 334 334 335 337 338 337 336 337 336 336 338 339 339 338 337 337 337 338 338 338
326 324 321 320 321 322 322 322 321 319 317 316 317 317 319 320 321 321 322 323 323 322 320 319 320 320 319 318 317 316 318 320 321 321 322 323 324 324 325 327 327 327 328 329 331 334 335 335 336 338 337 336 335 334 334 335 336 337 338 338 338 337 336 337 339 340 339 338 337 337 337 338 337 337
324 322 320 320 320 321 322 322 322 320 317 316 317 318 320 321 322 321 321 322 323 323 321 320 320 320 319 318 317 317 319 320 321 321 322 323 323 324 325 326 327 327 327 328 330 333 335 335 335 337 337 337 336 335 335 336 337 337 338 338 338 337 337 338 340 341 341 339 337 337 337 336 336 336
323 321 320 320 320 321 322 322 322 319 317 317 318 320 322 323 322 321 321 321 322 323 322 321 321 320 319 318 317 318 318 319 320 321 321 322 323 324 324 325 327 327 328 328 328 330 334 335 335 336 338 338 337 336 336 337 337 337 337 338 338 338 337 338 340 342 342 340 338 336 336 335 335 336
322 321 321 321 321 321 322 322 322 319 318 317 319 321 323 323 322 321 321 321 322 323 322 322 321 320 319 318 318 318 318 318 319 320 321 322 322 323 324 325 326 327 328 329 328 330 333 335 335 337 339 340 338 337 337 337 337 337 338 338 338 338 338 338 340 341 341 340 338 337 337 337 337 337
322 321 320 320 320 321 321 322 321 319 318 319 321 323 324 323 322 321 320 321 322 323 322 322 322 321 319 318 317 317 317 317 318 319 320 321 322 322 323 324 326 327 329 330 329 330 332 334 335 337 339 339 339 338 337 337 338 338 339 338 338 338 338 338 339 339 339 339 339 338 338 337 337 338
321 319 318 318 320 320 321 321 320 319 319 321 323 324 324 323 322 321 321 321 322 322 322 322 322 320 319 317 316 317 317 317 317 319 320 320 321 322 323 324 326 327 330 331 330 330 331 334 336 337 339 339 338 338 338 338 339 340 340 339 338 337 337 338 338 338 338 338 338 339 338 337 338 339
320 317 317 317 319 320 321 321 320 320 321 323 324 324 323 323 322 321 321 322 322 321 321 321 321 320 317 317 317 317 318 317 317 318 319 320 321 323 324 325 326 328 331 332 331 331 333 335 336 337 339 339 338 338 339 339 340 340 340 340 339 338 338 337 337 337 336 336 338 339 339 338 339 340
319 317 316 317 318 320 321 321 320 322 323 324 324 324 323 322 321 321 322 321 321 320 321 321 320 319 317 317 316 317 318 318 317 318 319 320 321 323 326 328 329 330 332 333 332 331 333 335 337 337 338 338 338 339 339 340 340 340 340 340 340 339 338 338 338 337 336 336 337 338 339 339 339 340
319 317 316 317 319 320 321 321 322 323 324 324 323 323 322 321 321 321 321 321 320 321 321 321 320 318 317 317 317 317 318 317 317 318 319 320 321 325 328 329 331 332 333 333 332 331 332 334 336 337 338 338 338 339 339 339 340 340 339 340 340 339 339 338 338 339 338 339 340 340 340 339 339 339
318 316 316 318 319 320 321 322 323 324 324 323 323 322 321 321 321 321 320 320 320 321 321 321 320 318 317 317 317 316 316 316 316 317 319 320 322 328 331 331 332 334 333 333 333 332 332 334 336 337 338 339 339 339 339 339 339 339 339 339 339 340 339 338 339 340 340 340 341 341 341 340 338 338
317 316 317 318 320 321 322 322 323 323 323 322 322 321 320 320 320 320 319 320 320 321 322 321 320 318 317 317 317 317 316 316 316 317 318 319 321 327 333 334 334 335 334 332 332 332 333 335 336 337 339 340 339 339 339 339 339 339 339 340 340 340 340 340 340 341 341 342 342 342 343 343 342 342
316 316 317 319 320 322 322 322 322 323 322 321 321 320 319 319 319 319 319 320 320 321 321 321 320 320 318 317 318 317 316 316 317 317 318 319 320 323 330 334 334 334 333 331 331 332 333 335 336 338 339 339 339 339 339 338 338 339 339 339 340 340 340 341 341 341 342 342 343 344 345 345 346 346
315 316 318 320 321 322 322 322 322 322 321 320 320 319 319 319 319 318 318 319 320 320 321 321 321 320 319 318 318 317 316 316 318 317 317 319 320 320 323 328 331 332 333 333 332 332 333 334 335 337 339 339 338 339 338 338 338 339 339 339 340 340 340 340 340 341 341 342 343 344 345 346 347 348
315 318 319 321 322 322 322 322 322 321 320 319 319 318 318 318 318 318 318 318 318 319 319 320 321 321 321 320 319 317 316 316 318 318 317 318 320 320 320 322 326 329 332 333 333 333 333 334 334 335 336 338 339 338 337 338 338 338 339 339 340 340 341 340 341 341 342 342 342 343 345 346 347 347
318 321 321 321 322 322 321 321 321 320 319 319 318 317 318 317 317 317 317 317 318 318 319 320 321 321 321 321 320 318 316 315 317 319 317 316 319 320 319 319 322 325 328 331 334 335 335 335 334 334 335 336 338 338 338 339 339 339 339 340 340 341 342 341 341 341 342 342 343 344 346 347 347 346
319 320 321 321 321 321 321 320 320 319 318 318 317 317 317 316 316 316 316 316 317 317 318 319 320 320 320 321 320 318 316 315 316 317 317 316 317 319 319 318 319 322 324 327 331 334 336 336 335 335 335 336 338 338 338 339 339 340 340 340 340 341 341 341 341 342 342 343 344 345 346 346 346 345
317 317 319 321 320 319 319 319 318 318 317 317 317 316 316 315 315 315 315 315 315 316 317 318 318 319 319 320 321 318 316 315 316 316 316 317 317 317 318 318 318 320 322 324 326 330 335 336 337 336 336 337 337 338 339 339 340 340 340 339 339 340 341 342 342 342 343 343 344 345 345 345 345 344
317 318 319 319 318 318 318 317 317 317 316 315 315 315 314 314 313 313 313 313 313 314 315 315 316 318 318 319 320 319 317 317 317 316 315 317 317 316 317 318 318 319 320 322 324 326 330 334 337 337 337 337 338 338 338 339 339 339 338 338 340 341 341 341 342 342 342 342 343 344 343 343 344 344
318 318 318 317 317 316 315 315 315 315 315 314 314 313 312 312 311 311 311 311 310 311 311 312 314 315 316 317 319 319 319 318 318 316 316 316 317 316 316 317 318 317 318 320 322 324 326 329 333 334 335 337 338 338 338 338 338 338 338 339 341 341 340 340 340 340 340 341 341 341 342 342 342 343
318 317 317 316 315 314 314 314 314 313 313 313 312 312 311 310 310 309 309 309 308 308 308 309 310 312 314 316 317 318 319 319 319 318 317 317 318 317 316 317 318 317 316 317 320 321 322 324 326 328 331 336 339 339 338 337 334 335 338 339 340 340 337 337 338 339 339 340 341 341 341 341 342 343
317 316 315 314 314 313 313 313 313 312 312 311 311 311 310 309 308 308 307 307 307 307 306 306 307 309 311 314 315 316 317 319 319 319 319 319 320 320 318 317 318 318 316 315 317 320 321 321 322 323 326 330 334 336 337 335 333 334 337 338 337 337 336 336 338 339 339 340 340 340 340 341 341 343
315 314 313 312 312 312 312 312 312 311 310 310 310 309 308 308 307 307 307 306 306 306 305 305 305 306 308 311 312 314 315 316 318 319 319 320 321 322 320 318 318 319 317 315 316 318 319 320 320 321 322 323 325 329 332 332 330 330 332 333 334 335 336 336 338 338 339 339 339 340 340 341 341 342
313 312 311 310 310 310 311 311 310 310 309 309 308 307 307 307 307 306 305 304 304 304 304 304 304 304 305 307 309 311 312 313 315 317 318 319 320 322 322 320 319 319 318 316 315 316 317 318 319 320 321 320 321 322 324 324 322 323 325 327 330 332 334 336 336 337 338 339 339 339 339 340 340 340
309 309 309 309 309 309 310 309 308 308 308 307 307 307 307 306 305 304 303 302 301 302 302 303 303 303 303 304 305 307 309 310 311 313 316 318 320 321 322 322 321 320 318 317 316 316 316 316 317 319 320 320 320 320 320 319 319 319 321 322 324 327 329 331 332 333 335 337 338 337 339 339 338 339
308 308 308 308 308 308 308 307 306 306 306 306 306 306 305 304 302 301 300 299 299 300 300 301 301 301 301 301 302 303 305 306 307 310 313 316 318 320 321 322 322 320 319 318 317 317 316 316 315 316 318 318 319 320 320 319 318 318 318 318 320 321 323 325 327 328 330 332 333 334 336 337 338 339
307 307 307 308 308 308 307 306 306 306 306 306 305 303 301 300 298 297 297 297 297 298 299 299 300 299 299 299 300 301 302 302 304 306 310 313 316 319 320 321 321 321 320 319 319 319 319 318 316 315 315 316 316 318 319 320 320 320 319 319 318 318 319 320 321 322 323 324 324 325 329 331 333 334
Wind_Speed
6 7 8 8 8 9 8 8 7 6 7 9 11 12 12 12 13 15 20 25 28 29 31 33 35 33 31 30 30 30 30 28 27 27 26 25 24 24 25 26 28 32 35 37 37 38 39 39 38 38 37 37 38 38 37 36 36 36 36 36 35 35 35 35 34 33 33 33 33 33 33 33 32 32
7 8 8 9 10 11 10 9 8 7 8 9 10 11 12 12 13 13 15 20 25 28 29 31 34 35 33 32 32 31 31 29 28 28 28 28 27 26 25 25 26 28 31 34 36 37 38 38 37 37 37 37 37 38 38 37 36 37 37 37 37 36 35 35 35 34 34 34 34 34 34 34 33 32
10 9 9 10 11 12 12 11 10 8 8 9 10 11 11 12 14 15 16 20 23 27 29 32 34 34 34 34 33 32 31 30 29 29 29 30 30 29 28 26 25 26 28 31 35 36 38 38 37 37 37 37 37 38 39 38 37 37 37 38 38 37 37 36 36 36 35 35 35 35 35 34 34 33
12 12 11 11 11 12 13 14 13 11 9 9 10 11 11 12 14 18 20 23 27 27 28 32 34 34 35 35 35 34 32 30 29 29 30 30 30 32 32 30 28 26 26 29 32 35 36 37 36 36 35 35 36 38 39 39 37 37 38 38 38 38 38 37 37 36 36 36 36 36 36 35 35 34
13 13 13 13 12 12 13 15 15 14 13 12 12 12 13 14 16 20 24 27 31 30 29 32 35 35 36 37 36 36 35 32 30 29 29 30 30 31 34 34 32 28 26 27 30 32 33 34 34 34 33 34 36 37 39 39 38 37 38 38 38 38 39 38 37 37 36 36 36 36 36 36 36 36
13 14 14 14 13 12 13 15 16 17 16 16 16 15 15 18 19 21 25 28 31 33 32 34 36 37 37 38 37 36 35 34 32 30 28 29 30 30 32 35 35 32 29 27 28 30 31 31 32 32 32 34 36 37 38 38 37 36 36 38 38 39 39 39 38 37 37 36 36 36 36 36 36 36
13 14 14 15 14 14 15 16 16 17 18 18 19 19 19 20 21 22 24 27 30 33 34 34 37 38 39 39 38 36 34 33 32 31 28 27 28 28 29 33 37 36 33 31 29 29 29 29 30 31 32 33 34 36 37 36 35 34 34 36 37 38 39 39 39 37 36 36 36 35 35 35 36 36
13 13 14 14 14 14 15 16 15 16 18 20 22 22 21 22 23 23 23 25 28 32 34 34 36 38 39 40 39 37 33 30 29 29 27 26 27 27 26 30 35 37 36 35 33 31 30 29 29 30 32 34 36 37 37 37 36 35 35 35 36 37 39 40 39 39 38 37 37 37 36 36 36 36
13 14 15 14 13 13 14 15 15 16 19 22 23 24 22 22 23 23 23 24 26 29 32 34 34 36 38 40 40 37 33 31 30 28 27 26 26 27 26 27 32 36 37 37 36 34 32 31 30 30 32 34 37 38 39 38 38 37 36 36 37 37 38 39 40 40 40 39 39 39 38 37 36 36
14 14 15 15 14 13 14 14 14 16 18 20 21 22 23 23 23 24 24 24 26 28 30 31 33 35 38 40 40 36 33 32 31 29 28 27 26 26 27 27 29 32 36 38 38 37 36 34 32 31 30 32 36 38 38 38 38 37 36 36 36 37 38 39 39 40 40 40 40 39 39 38 36 35
14 14 15 15 14 13 13 13 14 17 18 19 20 20 22 22 23 24 25 25 26 27 28 29 31 34 38 40 39 36 33 32 31 29 30 30 28 26 26 27 27 28 32 36 39 39 38 37 35 33 31 30 32 36 37 37 37 36 35 34 35 36 38 39 39 39 40 40 40 39 38 37 36 34
15 15 15 15 14 13 13 14 16 18 20 20 20 20 21 21 22 24 25 25 25 24 26 28 29 32 37 39 38 36 34 34 32 30 29 31 31 29 29 28 27 27 29 32 35 38 38 38 38 37 35 32 32 34 36 37 37 36 35 34 33 34 36 38 39 39 39 39 39 39 38 37 35 34
15 15 15 14 14 13 14 15 17 18 19 20 20 20 20 20 22 23 24 24 23 23 24 26 28 30 35 38 37 36 35 35 35 34 32 31 31 31 32 31 29 27 28 29 32 35 37 37 37 38 37 36 35 35 36 37 38 38 37 36 35 34 35 36 38 38 39 39 39 38 38 37 35 33
14 15 15 14 13 13 13 15 16 17 17 18 19 19 19 19 21 22 23 22 21 21 23 25 26 29 33 35 35 34 34 34 35 35 34 33 32 31 33 34 31 27 27 29 31 34 35 36 37 37 37 38 38 38 38 39 40 39 39 38 37 37 36 36 36 37 38 38 38 38 37 37 35 33
15 15 15 14 13 12 13 15 16 16 17 17 17 18 18 18 19 20 21 21 20 20 22 24 24 27 31 34 34 34 35 35 34 34 33 34 34 33 32 33 32 28 25 27 31 33 34 35 37 38 38 38 39 39 40 40 40 40 40 39 39 38 37 37 36 36 37 37 37 37 37 37 35 34
16 15 15 15 13 12 13 15 16 16 16 16 16 17 17 17 18 19 20 21 19 19 21 23 24 26 29 33 36 37 38 37 36 35 33 32 34 34 34 34 34 30 26 26 30 32 33 34 37 39 39 39 39 39 39 38 37 38 39 39 39 38 37 37 36 35 35 35 36 36 36 36 35 34
17 16 16 16 14 13 13 14 15 15 16 16 16 16 17 18 18 18 19 19 18 18 21 23 24 25 28 32 35 37 37 36 34 34 33 32 33 35 35 36 36 33 29 28 30 32 32 32 34 38 40 40 39 39 38 36 35 36 37 38 38 37 37 37 36 35 34 34 34 34 34 34 34 33
18 17 16 17 15 14 14 14 15 16 17 17 17 18 18 18 18 18 19 18 17 19 21 23 24 25 27 30 34 36 35 33 33 33 33 32 33 35 36 37 38 36 33 31 30 33 34 31 32 36 37 37 39 39 38 36 34 34 36 37 37 37 37 36 35 33 32 32 32 32 33 33 32 32
18 17 17 17 17 15 15 15 16 17 18 18 19 19 20 19 19 19 18 17 18 19 21 22 24 26 26 29 33 36 35 33 32 32 32 32 33 34 34 37 39 38 37 34 31 34 35 31 31 34 34 33 35 36 36 36 35 34 34 35 36 36 35 35 34 32 31 30 31 31 31 31 31 31
18 18 18 17 17 17 16 15 17 18 19 19 20 21 21 20 20 19 18 18 19 20 21 22 24 26 26 28 33 35 35 34 32 32 33 32 32 32 33 35 39 39 37 36 34 35 35 32 32 34 33 31 32 33 34 34 34 33 32 33 33 34 34 34 33 32 30 29 29 29 29 30 30 31
18 17 17 17 17 17 16 16 17 19 19 20 21 22 21 21 21 21 20 21 22 21 22 23 24 26 27 29 34 35 34 33 31 32 34 33 31 31 32 35 38 40 39 36 36 36 35 33 33 34 33 32 32 31 31 32 31 31 30 30 30 31 32 33 33 32 30 29 29 29 29 29 30 30
17 16 15 16 17 17 17 16 18 19 19 20 21 22 22 22 22 22 23 24 23 22 22 23 25 27 28 31 34 34 33 32 30 31 33 32 31 32 32 34 36 39 41 38 35 36 36 33 32 32 31 32 32 31 30 30 29 29 29 28 28 28 31 32 32 32 31 31 31 30 29 29 29 30
16 16 17 17 17 17 17 17 18 18 18 20 21 22 22 22 22 22 23 24 24 23 23 24 27 29 29 31 33 33 34 35 33 31 32 31 32 33 32 33 33 36 40 38 34 36 36 32 31 31 30 31 31 31 30 29 29 28 28 28 28 28 29 31 31 32 32 32 33 32 31 31 31 31
18 18 19 18 17 18 17 17 17 18 18 19 20 21 22 21 22 22 23 23 23 24 24 26 28 29 28 30 34 35 37 39 37 35 33 32 32 32 32 33 33 36 41 38 32 35 37 34 32 32 31 30 29 28 28 27 27 27 27 28 28 28 28 29 31 31 32 33 33 33 33 32 32 33
19 20 20 18 16 17 17 16 17 18 18 19 20 20 20 20 22 23 23 22 21 21 23 24 26 26 25 29 35 37 38 39 39 38 36 34 33 32 32 33 33 36 41 38 32 33 35 34 33 31 29 30 29 27 26 25 24 24 25 26 28 29 28 29 30 31 32 33 33 34 34 33 33 33
20 21 20 17 15 15 15 16 17 17 17 18 19 19 19 20 21 22 22 21 20 20 21 21 21 22 24 29 33 37 39 41 42 41 40 37 34 30 31 33 35 37 39 37 33 33 34 33 32 31 29 29 29 28 27 27 25 23 23 24 26 27 27 28 29 30 31 33 34 34 34 33 33 33
20 20 19 17 14 14 14 16 17 16 16 17 18 18 19 20 20 20 19 18 18 19 19 18 19 20 23 28 32 35 40 43 44 44 43 42 36 28 28 33 37 38 37 34 33 34 35 32 30 30 29 28 28 29 28 28 27 25 23 23 23 25 25 26 27 28 30 31 32 33 33 34 34 33
20 20 19 16 14 13 13 15 15 14 15 17 18 19 19 19 18 17 16 17 17 18 18 18 20 21 22 26 30 34 39 43 46 46 46 45 36 22 24 30 34 36 34 32 32 34 36 35 31 28 27 26 28 29 27 26 26 25 24 23 23 23 23 24 25 27 28 29 30 31 33 35 35 35
20 19 18 16 14 13 13 13 13 14 15 17 18 19 18 17 16 15 15 16 17 17 17 18 20 20 21 24 28 33 37 41 46 48 48 47 37 17 17 23 26 30 31 30 31 33 34 35 32 28 26 25 25 26 24 24 23 23 23 23 23 23 23 22 23 25 27 28 29 30 32 33 34 35
19 18 17 15 13 13 12 13 13 13 15 17 18 18 16 15 15 15 15 16 17 17 17 18 19 20 21 23 26 31 36 40 45 48 48 48 43 22 7 18 19 21 24 28 33 34 33 31 30 29 27 26 25 24 22 21 21 21 21 22 22 23 23 23 22 23 24 26 28 29 29 29 31 32
18 17 16 14 13 13 13 13 13 14 15 16 17 16 14 14 14 14 15 16 17 17 17 17 18 19 20 22 25 29 34 37 42 46 46 46 47 35 9 10 15 15 18 24 31 35 34 31 29 29 29 28 26 24 21 20 20 20 20 21 22 23 23 23 22 22 22 23 25 27 28 29 30 31
16 15 14 14 13 13 14 14 14 14 15 16 15 14 13 13 13 14 14 15 16 17 18 17 18 19 20 21 23 27 32 35 37 42 45 43 44 42 31 13 3 9 14 19 24 29 32 32 30 29 28 27 26 24 22 22 22 22 21 21 22 23 24 24 23 22 21 22 25 27 29 30 31 31
15 14 14 14 14 14 14 13 14 15 15 13 12 12 12 13 14 15 15 15 15 17 19 19 18 19 20 20 21 24 29 32 33 37 42 43 41 41 41 34 20 6 7 16 22 25 26 28 29 30 30 28 26 25 24 24 24 24 23 22 22 24 25 25 24 23 22 22 24 27 29 30 31 31
13 14 14 15 14 14 14 13 15 16 14 12 11 12 14 15 16 16 16 15 15 16 18 19 18 18 19 19 19 21 25 29 31 32 36 41 42 41 42 42 35 22 9 7 19 25 26 26 27 29 31 31 30 27 25 25 25 23 22 21 21 22 23 24 24 24 23 22 22 25 29 31 31 31
11 13 15 15 14 13 14 14 15 14 13 12 13 14 16 16 16 16 15 14 14 16 18 18 18 18 18 18 17 18 20 24 28 30 33 37 42 42 41 43 41 34 24 13 3 18 26 28 27 28 30 30 30 28 27 28 27 23 21 21 21 20 21 23 23 22 22 22 22 24 28 30 30 29
12 15 16 14 13 13 13 13 13 12 12 13 15 15 15 15 14 14 13 13 14 16 17 18 17 17 17 17 16 16 17 21 25 28 31 35 40 42 42 42 43 40 35 28 16 3 17 25 27 29 31 30 30 28 27 28 28 26 23 23 22 21 21 21 21 21 22 23 24 25 27 28 28 27
16 16 14 13 12 12 11 12 12 12 13 13 14 14 13 13 12 12 13 13 14 16 16 17 17 16 17 17 15 15 16 19 21 25 28 32 35 39 41 42 43 43 41 36 28 16 6 16 23 26 29 31 31 30 28 27 27 27 26 24 22 21 20 20 20 21 22 23 25 26 27 27 27 26
15 14 13 13 12 11 11 12 12 12 13 13 12 11 11 11 11 11 12 13 14 16 16 17 17 17 16 17 16 16 16 17 19 21 24 28 31 35 38 40 42 43 43 39 34 28 18 8 14 17 22 29 32 31 29 25 22 22 24 24 22 21 19 19 20 21 22 23 24 25 26 27 27 25
15 14 14 13 13 13 12 11 11 12 12 12 11 10 10 10 11 11 13 14 15 16 17 17 17 17 17 17 17 17 17 17 18 19 21 23 26 29 32 35 38 40 42 41 38 36 31 22 12 6 8 21 31 34 31 24 17 17 23 26 25 23 20 19 19 20 21 23 24 24 26 27 27 27
15 15 14 14 13 13 12 11 11 12 12 11 11 10 9 10 12 13 14 15 16 17 18 18 17 17 17 17 18 18 18 18 18 19 19 19 21 22 25 29 32 35 39 41 39 38 38 34 26 19 12 12 21 29 31 25 18 15 20 23 23 22 21 19 19 20 20 22 24 25 27 28 29 30
15 15 14 13 13 12 11 11 12 12 11 10 9 10 10 11 13 15 16 16 17 17 18 18 17 17 17 17 17 18 19 19 19 19 18 18 19 19 20 24 28 31 34 37 37 37 36 34 29 24 21 20 20 22 25 24 19 15 11 9 11 18 20 20 20 21 21 22 24 26 28 31 32 33
15 14 13 12 12 12 11 11 11 10 9 8 9 10 12 13 15 16 16 16 16 16 16 17 17 17 16 15 16 17 18 18 19 18 18 18 18 18 18 21 24 27 29 31 33 34 33 32 31 31 30 30 29 28 27 28 28 28 26 21 12 6 11 15 18 19 21 24 25 26 28 30 32 32
14 13 12 11 11 11 10 9 8 7 8 9 10 12 13 15 15 16 16 15 14 14 14 15 15 15 15 14 14 15 16 17 18 18 18 17 17 17 18 18 19 21 22 23 26 29 31 30 30 32 34 34 33 32 31 31 32 32 33 31 29 23 15 8 7 9 15 21 24 27 30 30 29 29
13 13 13 12 11 9 9 8 7 7 8 9 11 13 14 15 15 14 13 12 12 11 12 12 13 13 14 14 13 13 14 15 16 16 16 16 16 15 15 16 16 16 17 18 19 22 25 27 28 30 31 32 30 28 29 30 30 32 32 31 31 31 28 24 21 17 12 8 7 13 23 28 29 29
11 12 12 12 11 10 9 8 8 9 9 11 12 13 13 12 12 11 10 9 9 10 10 11 11 11 12 12 13 13 13 13 14 13 14 15 15 14 14 14 14 14 14 15 15 15 17 19 23 26 28 28 27 25 25 26 28 30 31 30 29 30 29 28 28 29 28 26 23 17 9 10 13 16
Wind_Direction
297 301 301 300 296 293 296 298 295 296 314 331 341 351 355 344 333 330 334 343 348 350 348 344 340 339 331 321 313 308 300 289 281 275 268 265 262 257 256 257 256 254 252 250 250 252 253 252 251 250 249 248 247 246 244 243 244 246 247 248 248 247 248 250 251 252 253 254 255 256 256 258 261 263
286 287 289 291 288 286 289 287 283 286 303 318 330 343 351 348 339 327 318 327 341 346 345 343 340 337 333 325 316 311 306 298 286 276 269 264 260 256 254 255 255 254 252 250 248 248 249 249 249 250 251 250 249 248 246 244 242 244 245 247 247 248 248 249 251 252 253 254 255 256 257 258 260 261
277 279 283 285 279 277 281 282 278 277 290 307 319 332 345 348 341 335 320 316 331 341 341 341 342 338 334 329 322 313 308 304 294 280 269 263 260 257 253 252 253 254 252 249 247 246 247 248 249 250 252 251 249 248 247 245 243 243 244 246 247 248 248 249 251 252 252 254 255 256 257 258 259 260
278 284 286 283 278 273 275 279 278 276 280 294 309 319 332 342 338 335 328 317 323 335 338 338 341 340 334 331 328 320 312 308 302 287 270 262 261 259 255 252 252 253 253 249 245 243 244 246 248 250 252 251 248 246 245 245 244 243 243 245 246 247 248 249 250 251 252 253 254 255 257 258 259 260
284 286 286 282 280 276 275 277 278 277 279 286 298 304 312 323 326 326 325 319 320 328 335 337 339 339 335 331 330 326 317 313 309 296 275 261 258 258 257 254 252 251 253 250 244 241 242 243 246 250 252 250 247 245 244 243 243 242 242 244 245 247 248 249 250 251 252 253 254 255 256 257 258 259
285 283 283 281 280 278 278 279 277 277 279 283 290 295 301 311 318 319 318 316 316 321 330 336 337 337 334 330 329 328 321 316 313 304 284 263 257 257 256 255 252 249 250 250 245 242 242 243 246 249 252 250 246 243 243 241 241 241 242 243 245 246 247 248 250 251 252 253 253 254 256 257 258 259
286 282 282 282 281 279 278 279 279 279 281 283 287 291 296 306 315 317 314 312 313 316 324 332 335 335 334 330 328 326 321 316 314 309 294 270 259 258 257 255 252 249 247 247 245 242 240 243 246 249 251 250 246 242 241 240 239 240 242 244 245 246 247 248 248 249 250 251 253 254 256 257 258 259
293 288 287 286 283 278 274 275 277 280 282 285 287 289 292 300 309 313 312 310 311 314 320 328 333 335 334 332 329 325 321 317 315 311 301 281 266 261 259 256 253 250 247 245 245 245 243 243 245 247 249 249 247 245 244 243 242 242 243 244 245 246 247 247 248 248 249 251 253 254 256 258 259 259
299 297 295 292 284 277 273 273 275 280 285 288 289 288 287 293 303 308 309 309 309 311 317 325 331 335 335 332 330 327 324 321 318 314 305 291 277 269 264 259 255 252 248 245 244 247 247 245 245 245 246 247 246 246 247 246 246 245 244 245 245 246 248 248 248 249 250 251 253 254 256 257 259 260
302 301 299 294 286 279 276 277 280 284 288 289 288 287 286 290 298 303 305 308 308 310 316 323 329 335 336 333 330 328 326 323 321 318 310 298 286 277 271 265 258 254 252 248 245 245 247 246 244 243 244 245 244 243 245 247 247 246 245 244 245 246 247 248 249 250 250 251 252 254 255 256 258 259
305 303 301 296 289 282 278 279 283 286 287 287 286 286 287 290 295 299 303 307 308 311 318 323 328 335 336 334 331 328 325 322 321 321 315 304 292 283 278 270 262 256 254 252 249 246 246 247 246 245 244 246 244 242 243 245 246 246 244 243 244 245 246 248 250 250 250 250 251 253 253 254 256 257
306 304 303 297 289 283 280 282 285 288 288 286 283 283 286 289 293 297 301 305 309 313 317 321 329 335 336 335 333 329 325 321 320 320 317 307 297 289 283 274 266 261 258 255 252 250 248 248 247 246 245 245 245 243 243 244 244 243 243 242 243 245 246 247 249 250 250 250 250 251 251 252 253 255
305 304 302 296 288 284 284 285 287 287 287 285 283 282 284 287 291 295 300 305 310 313 315 322 331 336 337 338 336 332 327 321 318 319 316 309 300 292 284 276 268 264 263 259 255 251 249 249 248 246 245 244 243 243 243 244 244 244 243 243 243 245 246 247 248 249 249 249 249 249 249 250 251 252
303 302 300 296 292 289 289 289 288 287 286 285 283 282 281 284 289 293 299 304 308 309 312 322 331 333 336 338 337 334 332 327 322 318 315 310 305 297 287 277 268 265 266 264 258 252 247 248 248 246 245 244 243 243 243 243 245 246 246 245 244 244 246 247 248 249 248 247 247 248 248 249 249 249
300 299 296 294 293 293 294 293 290 289 288 285 283 282 281 285 290 294 299 302 303 304 308 319 329 332 334 335 334 331 330 329 324 319 313 308 305 300 293 283 272 265 266 266 262 255 248 246 248 247 246 244 243 243 243 243 245 246 246 246 245 245 246 246 247 248 247 247 247 247 248 248 248 247
294 295 291 287 289 293 295 295 293 291 290 288 286 285 286 290 294 297 298 298 297 299 306 317 327 332 332 331 330 330 326 323 322 318 311 306 303 299 293 285 274 264 265 268 265 259 251 248 249 249 247 246 246 245 245 245 247 247 245 243 244 245 246 245 246 247 247 247 247 247 247 247 246 246
288 292 288 283 284 289 295 296 294 291 290 289 288 288 291 295 297 299 299 295 291 294 304 313 321 328 328 327 329 330 326 319 317 316 310 304 301 296 291 286 276 263 260 266 267 262 255 251 251 251 249 248 249 248 247 247 248 247 243 241 243 245 245 244 244 245 246 246 246 246 246 246 245 244
285 289 288 284 283 285 291 296 297 294 293 291 290 292 296 298 298 300 301 298 292 291 297 306 314 321 323 323 326 328 325 318 314 314 310 303 298 292 288 286 278 263 252 256 263 263 257 253 253 252 248 247 248 248 247 248 249 248 243 241 243 245 244 243 241 242 243 244 244 244 244 244 243 241
284 290 289 286 284 283 286 293 299 299 298 295 293 295 298 298 298 301 307 306 298 291 292 300 311 318 318 320 324 326 324 318 314 312 310 304 298 293 286 282 278 267 251 245 252 258 256 253 254 254 249 248 247 246 246 247 248 247 244 241 243 244 243 240 238 238 239 241 241 241 241 241 240 239
286 292 291 287 285 284 285 290 296 299 299 298 296 298 300 299 299 305 311 307 298 292 290 294 305 313 314 316 322 325 324 320 317 313 308 305 302 296 287 279 276 270 257 244 242 250 252 249 251 253 251 251 250 246 244 246 246 245 242 240 242 242 240 237 235 234 236 238 239 238 238 239 238 237
289 293 292 288 287 286 286 288 293 296 298 298 297 299 302 303 304 309 312 307 300 295 289 290 300 307 309 315 323 327 326 323 322 317 310 306 303 295 286 279 274 270 264 250 239 243 248 245 247 252 253 253 251 247 244 245 244 243 240 240 241 240 237 235 233 232 235 237 237 237 237 237 237 236
292 295 294 292 290 290 287 286 289 294 296 296 297 300 304 305 307 312 315 313 310 303 292 292 300 304 308 317 326 333 332 328 325 320 313 308 303 294 284 278 274 271 267 256 242 240 244 243 244 249 251 252 251 247 244 243 243 242 240 238 238 237 235 234 232 233 236 237 235 235 235 235 235 235
292 297 298 295 292 289 286 284 288 292 292 292 296 301 304 305 308 314 319 320 319 315 307 304 305 305 310 321 331 338 340 337 332 325 318 311 304 296 284 275 270 265 262 258 245 238 238 238 239 241 240 244 248 246 243 243 243 241 238 236 237 236 234 233 233 233 235 235 233 233 234 235 236 236
296 301 301 296 289 287 286 286 288 289 289 290 295 300 302 305 310 314 319 323 324 323 318 312 309 307 314 328 336 338 339 340 338 331 325 317 307 297 284 272 263 256 257 258 250 238 233 233 237 237 234 237 244 245 244 243 241 239 237 236 236 235 233 232 232 232 232 232 232 232 233 235 236 237
300 302 301 297 291 289 289 288 286 286 287 290 295 299 302 306 311 313 316 321 324 324 320 314 309 309 320 335 341 341 340 342 341 337 331 324 313 298 282 270 259 251 252 255 248 238 233 231 232 234 233 234 239 243 244 244 241 238 237 238 236 235 234 234 232 231 230 229 229 230 232 234 235 235
304 303 302 300 296 292 290 286 283 283 286 289 293 298 302 307 310 312 313 317 320 321 320 316 309 312 327 340 345 346 345 344 345 342 338 331 320 299 275 261 251 245 248 251 244 233 229 229 229 229 230 232 233 236 239 241 241 238 236 236 235 235 236 236 234 231 229 228 228 228 230 233 234 234
307 305 304 303 298 291 285 282 282 284 286 288 290 295 302 308 311 311 311 312 316 319 320 317 310 314 332 344 348 350 349 347 348 348 344 338 329 302 268 251 243 241 244 248 243 231 224 226 229 229 231 232 231 231 233 236 238 237 235 234 235 234 235 235 233 231 229 228 228 229 230 231 233 234
309 306 305 303 296 286 281 280 282 282 281 282 287 296 304 310 311 309 309 309 314 319 320 316 311 318 335 345 348 352 353 349 351 352 348 346 341 310 264 247 239 238 240 240 236 229 224 224 227 229 231 232 230 229 231 232 234 234 235 236 236 234 232 232 231 229 226 226 227 228 229 230 232 233
307 304 303 299 292 285 281 277 274 273 274 279 289 299 306 309 310 310 311 311 315 320 321 316 313 319 334 342 346 352 354 350 351 355 354 353 354 333 259 244 236 234 236 232 225 224 223 223 225 228 229 227 226 228 230 231 232 234 236 237 237 236 234 233 233 231 227 226 226 227 229 231 233 235
303 300 299 294 288 280 272 266 263 266 273 283 293 300 305 309 311 314 317 317 319 323 321 316 313 317 328 339 345 352 355 353 353 357 359 358 2 3 258 232 232 231 232 225 217 217 219 220 222 225 226 224 223 224 226 227 229 232 235 237 239 239 236 232 232 233 232 230 229 230 232 233 234 235
296 293 289 285 278 267 259 257 258 266 278 289 296 299 303 308 313 318 324 323 322 324 321 316 314 315 322 335 344 351 359 0 358 0 4 3 5 13 22 216 223 227 227 220 214 213 215 218 221 223 224 226 226 224 224 228 230 232 235 238 241 241 237 231 230 232 235 235 234 234 234 234 233 232
286 281 274 268 262 256 253 255 261 273 286 294 295 295 301 310 315 319 323 322 321 323 323 321 320 318 320 332 344 353 3 8 4 3 7 8 8 15 27 45 142 208 216 218 217 216 217 220 224 224 224 227 230 229 227 228 232 234 239 243 245 244 240 236 234 235 236 238 238 236 235 234 233 232
273 263 257 253 250 249 252 259 270 283 291 292 290 294 302 310 315 317 317 317 318 323 326 325 326 324 324 332 343 353 4 12 10 7 9 11 10 15 25 34 44 69 194 210 217 220 221 222 225 227 226 228 232 233 231 231 233 235 238 243 246 245 242 239 237 237 237 239 240 237 233 233 233 233
259 251 249 247 247 248 255 267 278 286 287 283 286 297 305 311 316 316 313 313 316 322 326 326 327 329 331 335 342 352 3 11 12 11 11 13 15 18 23 29 34 41 57 190 211 217 221 222 222 224 227 231 233 233 232 233 235 237 239 241 242 242 240 238 237 238 240 242 242 236 231 230 231 233
257 262 256 249 251 258 268 277 281 280 280 283 291 301 308 313 317 317 314 316 320 324 326 327 328 332 336 341 345 352 1 9 13 14 15 16 18 20 24 27 31 36 40 45 181 210 216 219 220 221 225 230 233 233 231 232 232 232 234 237 239 240 240 238 237 238 239 240 238 232 228 228 230 233
264 268 259 253 263 274 277 278 277 276 281 290 296 303 310 316 320 323 325 329 330 329 329 330 332 335 339 344 349 352 357 5 12 16 18 19 20 22 25 28 30 34 38 40 43 145 203 209 215 221 224 225 226 226 224 224 225 225 228 233 237 239 237 232 230 234 236 235 233 230 228 229 231 233
260 259 259 265 275 278 276 274 276 281 289 294 298 303 311 319 325 331 335 336 336 336 336 336 339 341 342 344 348 350 353 2 11 17 19 20 21 23 26 28 29 32 36 39 43 53 129 187 198 211 220 220 219 217 215 215 218 223 228 231 230 226 224 223 225 230 233 234 233 233 234 235 235 235
254 256 265 274 276 276 277 276 279 286 292 293 295 301 310 320 327 333 336 337 338 341 342 343 345 347 347 349 351 351 352 359 9 17 19 20 22 25 27 27 29 32 33 35 42 48 57 112 167 188 207 213 211 208 205 204 210 220 225 224 218 212 214 223 229 231 233 236 237 238 239 240 238 236
253 260 267 271 274 278 279 277 280 287 290 290 293 299 309 320 328 332 334 336 338 339 342 344 347 350 352 355 358 358 358 1 8 15 18 18 20 25 27 26 27 32 34 34 37 42 46 51 64 90 186 206 208 208 203 193 188 205 216 216 214 214 218 226 232 235 237 239 241 242 243 242 241 238
258 265 270 274 279 280 278 277 280 284 287 290 294 300 309 319 326 329 331 333 334 334 336 340 344 348 351 356 1 3 4 5 9 14 15 15 17 24 29 29 28 32 36 36 37 39 42 43 42 44 67 144 181 197 199 188 172 186 206 212 217 222 224 226 231 237 242 243 244 245 244 241 240 238
265 271 275 278 280 278 277 280 281 280 285 292 297 303 310 316 322 326 327 327 327 328 331 335 340 344 348 355 1 4 6 8 10 12 13 14 16 23 31 34 34 35 38 39 39 40 42 44 47 52 64 86 112 142 161 156 136 129 147 174 213 228 228 227 229 234 240 244 246 246 244 241 239 237
269 271 271 275 280 278 276 280 282 281 287 296 301 305 311 316 318 319 320 321 322 323 325 330 336 341 345 352 360 3 6 10 13 14 15 17 19 25 32 36 40 42 42 40 40 42 43 46 51 57 62 66 71 84 100 104 97 94 95 93 98 162 215 226 230 234 240 243 241 239 238 236 233 230
266 264 264 271 280 278 273 278 285 287 293 301 307 310 314 315 313 313 315 318 321 322 323 326 333 340 345 353 1 4 5 9 13 17 20 23 25 29 33 36 42 50 50 44 42 43 45 46 48 54 61 64 64 67 75 81 83 85 87 86 85 88 98 128 172 208 230 236 234 233 232 230 229 231
263 263 265 268 272 273 273 280 290 299 303 308 313 316 316 313 313 315 320 325 327 328 329 331 335 340 347 356 5 8 8 9 12 16 22 27 30 33 36 36 41 51 56 52 46 45 47 49 49 51 57 63 65 65 69 73 77 78 79 81 83 83 85 90 96 105 126 161 200 225 227 225 229 236
265 269 274 271 265 265 274 286 295 304 311 313 316 316 315 314 318 325 332 339 342 338 337 339 344 348 354 4 14 17 14 13 14 17 23 28 30 33 39 40 39 44 51 55 54 54 53 54 54 54 55 59 61 61 61 65 70 72 71 72 74 76 77 80 83 85 86 84 76 73 100 163 187 201